SCP
9 7 5 4 4 4 4 4 4 3 2 2 2 1 1 1 1 1 1 1 1 1 1 1 1 1 0 0 0 0 0 0 0 0 0 0 0 0 0 0 0 0 0
10 9 7 5 4 4 5 5 4 4 3 2 2 1 1 1 1 1 1 1 1 1 1 1 1 1 0 0 0 0 0 0 0 0 0 0 0 0 0 0 0 0 0
12 11 9 7 5 5 5 5 5 4 3 2 2 1 1 1 1 1 1 1 1 1 1 1 1 1 1 0 0 0 0 0 0 0 0 0 0 0 0 0 0 0 0
14 13 12 9 7 6 6 5 5 5 4 3 2 1 1 1 1 1 1 1 1 1 1 1 1 1 1 0 0 0 0 0 0 0 0 0 0 0 0 0 0 0 0
16 15 14 12 9 7 7 7 6 4 3 2 2 1 1 1 1 1 1 1 1 1 1 1 1 1 1 1 0 0 0 0 0 0 0 0 0 0 0 0 0 0 0
17 17 16 13 10 7 7 8 6 3 2 2 2 2 1 1 1 1 1 1 1 1 1 1 1 1 1 1 1 0 0 0 0 0 0 0 0 0 0 0 0 0 0
17 17 16 14 10 8 7 7 5 3 3 2 2 2 1 1 1 1 1 1 1 1 1 1 1 1 1 1 1 0 0 0 0 0 0 0 0 0 0 0 0 0 0
15 16 16 13 10 8 6 5 4 4 3 3 3 2 2 1 1 1 1 1 1 1 1 1 1 1 1 1 1 0 0 0 0 0 0 0 0 0 0 0 0 0 0
11 12 13 11 9 8 7 6 5 4 4 3 3 3 2 1 1 1 1 1 1 1 1 1 1 1 0 0 0 0 0 0 0 0 0 0 0 0 0 0 0 0 0
6 7 8 8 8 7 7 6 5 4 5 4 3 3 2 2 1 1 1 1 1 1 1 1 1 0 0 0 0 0 0 0 0 0 0 0 0 0 0 0 0 0 0
3 4 5 6 7 7 6 6 5 5 6 5 4 3 3 2 1 1 1 1 1 1 1 1 1 1 0 0 0 0 0 0 0 0 0 0 0 0 0 0 0 0 0
3 4 5 6 7 7 6 6 7 7 7 6 5 4 4 3 2 1 1 1 1 1 1 1 1 1 0 0 0 0 0 0 0 0 0 0 0 0 0 0 0 0 0
3 4 4 5 6 7 7 8 9 8 8 7 6 5 4 3 2 1 1 0 0 1 1 1 1 1 0 0 0 0 0 0 0 0 0 0 0 0 0 0 0 0 0
4 4 4 4 6 7 9 9 10 9 8 7 6 5 4 3 2 2 1 0 0 0 1 1 1 0 0 0 0 0 0 0 0 0 0 0 0 0 0 0 0 0 0
4 4 4 4 6 8 9 9 9 8 7 6 5 4 3 2 2 1 1 0 0 0 0 0 0 0 0 0 0 0 0 0 0 0 0 0 0 0 0 0 0 0 0
3 4 4 5 6 8 8 8 7 7 6 5 4 3 2 2 1 1 1 1 0 0 0 0 0 0 0 0 0 0 0 0 0 0 0 0 0 0 0 0 0 0 0
2 3 4 5 6 7 7 7 7 6 5 4 3 3 2 2 1 1 1 1 1 0 0 0 0 0 0 0 0 0 0 0 0 0 0 0 0 0 0 0 0 0 0
2 3 5 6 5 6 6 6 5 4 4 3 2 2 2 2 1 1 1 1 1 1 1 0 0 0 0 0 0 0 0 0 0 0 0 0 0 0 0 0 0 0 0
2 3 5 6 5 4 4 4 3 3 2 2 2 2 2 2 2 1 1 1 1 1 1 1 0 0 0 0 0 0 0 0 0 0 0 0 0 0 0 0 0 0 0
2 4 6 6 5 4 3 3 2 2 2 1 1 1 2 2 2 1 1 1 1 1 1 1 1 0 0 0 0 0 0 0 0 0 0 0 0 0 0 0 0 0 0
3 5 6 5 4 3 3 2 1 1 1 1 1 1 1 2 2 2 1 1 1 1 1 1 1 1 1 0 0 0 0 0 0 0 0 0 0 0 0 0 0 0 0
4 4 5 4 3 3 2 2 1 1 1 1 1 1 1 1 1 2 2 1 1 1 1 1 1 1 1 1 0 0 0 0 0 0 0 0 0 0 0 0 0 0 0
3 3 3 3 3 2 2 2 2 2 2 2 2 1 1 1 1 1 2 2 2 2 2 2 2 1 1 1 1 0 0 0 0 0 0 0 0 0 0 0 0 0 0
2 2 2 3 3 2 2 2 2 2 3 3 2 2 2 1 1 1 2 2 2 2 2 2 2 2 2 1 1 1 0 0 0 0 0 0 0 0 0 0 0 0 0
1 2 2 2 2 2 2 2 2 3 4 4 4 3 3 2 2 2 2 2 2 2 2 2 2 2 1 1 1 1 0 0 0 0 0 0 0 0 0 0 0 0 0
1 1 2 2 2 3 3 2 3 4 5 5 5 4 3 3 2 2 2 1 1 1 1 1 2 2 1 1 1 0 0 0 0 0 0 0 0 0 0 0 0 0 0
Wind_Speed
11 12 13 13 12 11 11 11 10 9 7 5 5 5 4 4 4 4 5 5 5 5 4 3 3 3 3 3 3 2 2 1 2 3 2 2 2 1 1 1 2 2 2
10 13 13 13 13 13 12 11 11 10 8 6 5 4 4 3 3 3 4 5 5 5 5 5 4 3 3 3 3 3 2 1 1 3 3 2 3 2 1 1 2 2 1
16 16 15 14 14 14 14 13 11 10 9 8 5 4 4 3 2 2 3 3 5 5 5 5 4 4 3 3 3 3 4 2 0 2 4 3 2 1 2 1 0 1 1
13 14 14 14 15 14 13 11 11 10 9 9 8 9 6 5 5 4 3 4 4 5 5 5 5 4 3 3 3 3 3 3 2 0 1 2 4 3 0 2 1 1 2
15 15 16 15 14 13 13 11 11 10 9 9 9 9 6 4 4 4 5 4 3 4 5 5 5 4 3 4 3 3 3 3 3 2 1 1 1 2 3 1 1 1 1
14 13 13 12 11 11 11 11 11 10 10 10 9 9 9 7 7 6 5 4 3 2 4 5 5 4 4 4 4 3 3 2 3 2 2 2 2 2 3 2 1 1 2
13 13 13 13 12 13 13 12 13 11 10 10 9 9 10 10 9 8 7 5 4 3 4 4 4 4 4 4 4 3 3 3 3 2 2 2 2 2 3 3 2 1 1
11 14 14 14 14 15 14 13 13 11 11 10 9 8 9 7 6 7 6 6 5 4 5 5 5 5 4 4 3 2 2 2 2 2 2 1 1 1 2 3 4 2 1
10 13 13 13 13 14 14 14 13 11 11 11 9 8 8 7 7 7 6 5 5 5 6 6 5 5 4 4 4 2 2 2 2 2 2 2 1 1 1 2 3 5 2
8 10 12 12 11 11 11 12 12 11 10 10 9 8 7 7 7 7 7 6 6 6 7 6 6 5 5 5 4 3 2 3 2 2 2 2 1 1 2 2 2 3 4
9 11 10 10 11 11 11 11 11 10 9 10 8 8 7 7 7 7 7 7 6 7 7 7 6 6 5 5 4 3 3 3 2 2 2 2 1 2 2 2 2 2 3
9 10 10 10 10 10 10 11 11 11 10 9 8 8 8 7 7 7 7 7 7 7 7 7 7 6 6 5 5 5 4 4 4 3 3 2 2 2 1 1 1 1 2
7 8 9 10 11 11 10 10 10 10 10 9 8 8 8 8 7 7 7 7 7 7 7 7 7 6 6 6 5 5 5 5 4 4 4 3 3 2 1 1 1 1 1
8 9 9 9 10 10 11 11 10 10 10 9 9 9 9 8 8 7 7 7 7 7 7 7 7 6 6 6 5 5 5 4 4 4 4 4 4 4 3 2 2 1 1
8 10 11 9 9 9 10 10 10 10 10 10 9 9 8 8 7 7 7 7 7 8 7 6 6 6 5 6 6 5 5 4 4 3 4 4 6 6 5 3 3 2 2
8 10 11 11 11 11 11 11 10 11 10 10 10 9 8 8 8 8 7 7 7 6 6 6 6 6 6 8 10 7 5 5 5 4 3 4 5 6 6 6 7 6 4
8 10 11 11 11 12 12 12 11 10 10 10 9 9 9 9 9 9 8 8 7 6 6 6 6 6 6 9 10 10 6 5 5 5 4 4 4 5 3 4 4 5 7
8 9 10 10 9 9 9 10 10 11 11 10 10 10 10 9 8 8 8 8 6 6 6 6 6 6 7 10 10 10 6 5 5 5 5 4 4 5 5 4 3 4 5
7 7 8 8 8 9 10 10 10 10 10 11 11 11 10 10 9 9 9 7 7 6 6 6 7 7 7 10 11 9 4 4 5 5 5 6 6 9 9 5 5 5 5
4 5 6 7 8 9 9 10 10 10 11 11 10 10 10 10 10 10 8 6 6 7 7 6 7 7 7 10 12 11 4 4 4 4 4 7 7 9 9 6 5 6 6
3 5 6 6 8 9 10 10 10 10 10 9 9 9 9 10 10 9 7 6 6 6 6 6 6 7 8 10 13 12 6 6 5 4 4 4 7 8 8 8 6 8 6
4 5 5 4 5 8 10 9 9 9 8 8 8 8 8 9 8 8 7 7 7 7 6 6 5 5 6 8 10 13 12 8 5 5 4 4 7 8 8 7 7 9 5
4 5 6 5 3 5 8 9 8 7 8 8 8 8 8 7 7 8 8 6 6 6 6 5 6 5 4 6 10 13 13 12 6 5 6 6 7 7 6 8 9 6 3
4 4 6 5 3 2 4 5 6 7 8 8 8 7 7 7 6 6 6 6 7 7 6 7 6 5 4 4 5 5 7 8 7 4 4 5 5 4 4 4 4 4 4
3 4 5 4 3 2 2 2 3 6 7 7 6 6 6 6 6 5 4 6 6 7 8 7 6 6 6 8 9 7 6 6 6 4 2 1 1 2 2 2 3 3 2
3 4 4 4 3 3 2 1 1 4 6 5 5 4 4 4 4 4 3 1 2 4 6 6 6 4 5 7 9 9 9 9 8 5 3 3 4 4 3 3 3 3 3
Wind_Direction
168 160 163 164 161 162 161 161 160 162 154 154 154 148 150 150 147 153 150 149 147 142 139 138 134 131 133 143 134 120 104 88 100 81 46 15 23 81 157 164 158 176 181
165 168 168 170 169 170 168 165 167 166 164 164 160 155 145 148 150 150 149 155 152 150 151 145 144 143 133 128 124 120 115 97 114 119 101 41 2 353 31 139 161 173 165
177 175 174 175 171 171 173 173 172 169 167 159 142 131 112 105 116 148 159 165 156 150 146 148 144 145 140 144 143 135 134 140 95 127 139 146 195 299 341 333 153 164 172
176 174 175 176 176 175 173 169 170 170 167 159 158 159 160 163 174 170 164 160 156 151 149 148 144 143 141 145 148 137 135 135 142 122 141 159 155 146 145 333 327 230 196
177 177 178 179 176 172 171 169 168 169 168 166 166 166 164 162 152 151 153 154 151 152 148 146 142 142 141 143 137 131 130 135 146 153 144 108 98 119 137 188 287 313 274
179 178 175 169 168 167 167 166 168 171 171 169 167 168 165 159 156 161 163 161 152 151 154 146 144 145 144 145 144 141 141 143 142 145 140 145 148 164 150 162 202 237 272
177 173 171 169 168 168 169 170 172 173 174 171 172 172 169 167 170 170 170 166 163 168 173 157 154 151 152 150 142 135 138 144 143 151 154 157 173 162 150 139 155 190 285
180 176 176 173 172 170 170 170 173 173 174 173 174 173 169 170 173 173 170 173 175 175 168 163 163 159 155 153 143 133 142 130 129 133 133 137 169 152 152 151 142 119 343
183 179 174 172 172 170 171 172 173 172 174 173 169 171 171 170 172 173 168 168 169 169 167 165 162 160 156 152 143 139 151 135 130 127 124 120 102 111 129 137 145 145 153
176 175 173 171 169 168 168 168 168 172 173 171 174 176 174 172 168 167 168 172 173 168 163 165 162 159 157 152 144 145 153 142 147 142 121 110 106 91 89 113 123 138 147
177 174 172 167 162 161 162 165 168 167 170 173 173 167 169 168 164 169 174 173 172 167 168 168 167 166 164 160 158 168 166 164 164 153 137 139 126 98 82 86 97 118 135
172 167 164 161 160 164 167 169 171 172 173 172 166 164 166 166 167 171 173 169 169 170 170 168 169 173 171 171 175 185 178 172 170 168 150 160 129 104 98 101 103 132 154
158 158 161 164 165 169 171 172 174 174 171 167 165 165 167 168 171 172 169 166 165 167 168 165 170 177 177 178 184 184 179 179 181 177 172 174 146 141 147 137 143 166 132
166 166 167 169 166 167 170 172 174 172 168 167 168 170 173 174 172 169 166 166 165 168 172 173 177 179 180 181 181 178 175 178 186 185 183 184 176 180 180 174 183 164 120
173 176 173 170 166 166 169 172 174 173 169 168 172 175 173 169 165 166 168 167 169 176 175 172 176 178 179 186 179 179 180 180 187 191 190 194 192 193 189 183 184 161 148
187 184 174 171 173 174 175 175 174 173 168 171 175 171 167 168 170 171 170 170 174 175 173 174 175 182 193 190 185 180 178 180 182 191 204 207 202 202 199 198 193 181 176
184 182 180 179 181 180 176 175 173 167 168 171 173 171 171 172 176 178 174 177 178 175 178 182 179 187 198 193 192 189 174 179 186 187 192 211 210 201 204 215 220 221 215
184 184 183 184 182 176 170 168 166 167 170 173 174 174 173 175 175 176 181 183 178 179 182 185 188 191 203 198 196 193 184 185 191 190 190 199 216 216 204 211 225 239 240
184 184 182 178 173 170 167 162 167 169 172 177 179 179 176 175 177 184 187 184 180 184 186 184 186 192 203 199 197 184 178 190 204 209 205 203 215 227 216 206 221 245 261
168 168 167 166 171 172 163 164 169 172 179 181 180 178 177 177 182 187 186 181 179 186 185 189 192 193 200 202 200 189 183 195 211 222 225 222 221 228 217 205 209 232 249
113 140 147 164 174 166 162 168 172 181 184 176 172 174 179 181 182 182 181 177 179 179 187 194 200 200 203 205 203 196 191 199 206 217 225 230 223 223 220 208 208 225 230
92 113 127 146 159 159 161 170 183 185 171 166 171 176 180 185 184 179 181 179 180 186 194 197 207 213 209 205 206 202 203 198 197 213 218 223 221 224 227 222 228 232 228
89 99 112 117 135 160 165 175 188 170 163 168 176 180 182 186 178 179 181 180 184 191 199 200 210 216 210 210 207 203 207 207 206 216 219 226 231 232 234 234 234 228 213
70 84 100 105 112 143 165 177 176 166 163 172 180 182 182 185 181 183 184 187 193 199 203 206 210 209 205 208 201 201 208 212 219 229 230 231 232 232 241 248 242 222 212
64 93 106 106 104 105 108 128 156 159 165 172 177 180 182 182 182 179 185 194 203 204 200 205 199 197 210 216 201 189 195 198 204 187 191 208 222 240 245 245 245 233 225
66 85 91 95 98 94 84 89 140 152 156 165 172 176 176 175 170 165 163 133 162 185 191 196 187 199 203 187 185 190 195 195 178 163 192 215 219 224 229 234 243 235 234